Location: Aalen
(48.8330°N, 10.1000°E)
Time: 01:07:41
(UTC+02:00)

Transit 2A - Pass Details

Date: 05 August 2021
Orbit: 594 x 964 km, 66.7° (Epoch: 26 September)

Event Time Altitude Azimuth Distance (km) Brightness Sun altitude
Rises 15:20:41 0° 322° (NW) 3,242 9.2 50.4°
Reaches altitude 10° 15:23:00 10° 319° (NW) 2,367 8.7 50.1°
Maximum altitude 15:28:24 63° 240° (WSW) 950 8.6 49.4°
Drops below altitude 10° 15:34:20 10° 160° (SSE) 2,586 9.0 48.7°
Sets 15:36:57 0° 158° (SSE) 3,564 9.6 48.3°
